Regional Weather Roundup
Issued by NWS

Home | Current Version | Previous Version | Text Only | Print | Product List | Glossary Off
Versions: 1 2 3 4 5 6 7 8 9 10 11 12 13 14 15 16 17 18 19 20 21 22 23 24 25 26 27 28 29 30 31 32 33 34 35 36 37 38 39 40 41 42 43 44 45 46 47 48 49 50

643
ASUS43 KIND 242309
RWRIN

WEATHER ROUNDUP FOR INDIANA
NATIONAL WEATHER SERVICE INDIANAPOLIS IN
700 PM EDT TUE APR 24 2018

NOTE: "FAIR" INDICATES FEW OR NO CLOUDS BELOW 12,000 FEET WITH NO
SIGNIFICANT WEATHER AND/OR OBSTRUCTIONS TO VISIBILITY.

* - STATION DOES NOT REPORT WEATHER SUCH AS PRECIPITATION OR FOG.

+ - STATION NOT QUALITY CONTROLLED BY THE NATIONAL WEATHER SERVICE.
    USE DATA WITH CAUTION...ESPECIALLY DEWPOINT AND RELATIVE
    HUMIDITY OBSERVATIONS.

INZ001>003-010>013-019-020-250000-
NORTHWEST INDIANA

CITY           SKY/WX    TMP DP  RH WIND       PRES   REMARKS
GARY /AIRPORT/ PTSUNNY   50  45  81 N9        30.01S
KNOX *+        CLOUDY    55  50  82 N9        29.96F
LA PORTE +     CLOUDY    55  48  77 N9        29.98S
MICHIGAN CITY+ CLOUDY    54  46  76 N7        29.99F
MONTICELLO +   CLOUDY    58  50  74 NE5       29.95S
RENSSELAER +   CLOUDY    61  45  55 N8        29.96S
VALPARAISO     CLOUDY    60  49  66 N12       29.98S

$$

LMZ046-743>745-250000-
SOUTHERN LAKE MICHIGAN

STATION/POSITION TIME  TEMP    WIND        PRES    WAVE
                       AIR SEA DIR/SP/G            HT
                 (UTC) (F)     (DEG/KT/KT) (MB)    (FT)
BURNS HARBOR     2240   44      30/  4/  5 1016.3S
MICHIGAN CITY    2240   44      40/  7/  7   N/A

$$

INZ004-005-014>016-021>024-250000-
NORTH CENTRAL INDIANA

CITY           SKY/WX    TMP DP  RH WIND       PRES   REMARKS
ELKHART        PTSUNNY   59  48  67 NE7       29.97S
GOSHEN         CLOUDY    58  50  75 NE10      29.96S
LOGANSPORT +   CLOUDY    55  50  82 N6        29.96S
ROCHESTER +    CLOUDY    59  50  72 NE6       29.96S
SOUTH BEND     CLOUDY    57  49  74 N7        29.98S
WARSAW +       CLOUDY    55  50  82 NE7       29.96S

$$

INZ006>009-017-018-025>027-250000-
NORTHEAST INDIANA

CITY           SKY/WX    TMP DP  RH WIND       PRES   REMARKS
ANGOLA *+      CLOUDY    54  52  94 E8        29.96S
AUBURN +       DRIZZLE   52  52 100 NE7       29.96F
FORT WAYNE     CLOUDY    55  53  93 NE8       29.95S
HUNTINGTON +   CLOUDY    54  53  95 N3        29.94F

$$

INZ028-029-035-036-043>045-051>053-250000-
WEST CENTRAL INDIANA

CITY           SKY/WX    TMP DP  RH WIND       PRES   REMARKS
CRAWFORDSVL +  CLOUDY    55  52  89 N9        29.95S
GREENCASTLE +  CLOUDY    54  52  94 N6        29.94S
LAFAYETTE      CLOUDY    59  51  75 NE9       29.94F
TERRE HAUTE    CLOUDY    60  53  77 NE8       29.94S

$$

INZ030>032-037>040-046>048-054>057-064-065-250000-
CENTRAL INDIANA

CITY           SKY/WX    TMP DP  RH WIND       PRES   REMARKS
COLUMBUS       CLOUDY    54 N/A N/A CALM      29.92S
FISHERS *+     CLOUDY    54  54 100 N6        29.93S
FRANKFORT +    CLOUDY    59  54  82 NE9       29.96S
GREENWOOD *+   CLOUDY    54  53  95 NE8       29.93S
INDIANAPOLIS   LGT RAIN  55  53  93 N7        29.93S FOG
-EAGLE CREEK   CLOUDY    55  52  89 N6        29.93R
KOKOMO +       CLOUDY    55  53  93 N9        29.95F
MARION +       CLOUDY    53  51  91 CALM      29.95S
MT COMFORT *+  CLOUDY    54  54 100 NE6       29.93S
SHELBYVILLE    CLOUDY    56  52  86 NE7       29.91S FOG
ZIONSVILLE +   CLOUDY    54  52  95 N8        29.94S

$$

INZ033-034-041-042-049-050-058-059-250000-
EAST CENTRAL INDIANA

CITY           SKY/WX    TMP DP  RH WIND       PRES   REMARKS
MUNCIE         LGT RAIN  56  53  90 NE6       29.93S FOG
RICHMOND +     CLOUDY    52  52 100 NE7       29.91F

$$

INZ060-061-067>069-081>083-085>088-250000-
SOUTHWEST INDIANA

CITY           SKY/WX    TMP DP  RH WIND       PRES   REMARKS
EVANSVILLE     CLOUDY    59  54  83 N7        29.94S
HUNTINGBURG +  LGT RAIN  57  53  86 NW8       29.93R
WASHINGTON +   CLOUDY    56  53  87 N8        29.93S

$$

INZ062-063-066-070>080-084-089>092-250000-
SOUTH CENTRAL AND SOUTHEAST INDIANA

CITY           SKY/WX    TMP DP  RH WIND       PRES   REMARKS
BATESVILLE +   CLOUDY    54  54 100 MISG      29.91S
BEDFORD +      CLOUDY    55  50  82 N7        29.91S
BLOOMINGTON    CLOUDY    56  53  90 N10       29.92S
FRENCH LICK *+ CLOUDY    54 N/A N/A CALM      29.92S
MADISON *+     CLOUDY    55  54  94 CALM      29.91S
NORTH VERNON + CLOUDY    54  52  94 N5        29.91S FOG
SEYMOUR +      CLOUDY    57  55  94 N5        29.91S

$$





USA.gov is the U.S. government's official web portal to all federal, state and local government web resources and services.